Regional Weather Roundup
Issued by NWS Albany, NY

Home | Current Version | Previous Version | Graphics & Text | Print | Product List | Glossary Off
Versions: 1 2 3 4 5 6 7 8 9 10 11 12 13 14 15 16 17 18 19 20 21 22 23 24 25 26 27 28 29 30 31 32 33 34 35 36 37 38 39 40 41 42 43 44 45 46 47 48 49 50

000
ASUS41 KALY 311610
RWRALY

NEW YORK STATE HOURLY WEATHER ROUNDUP
NATIONAL WEATHER SERVICE ALBANY NY
1100 AM EST SAT JAN 31 2015

NOTE: "FAIR" INDICATES FEW OR NO CLOUDS BELOW 12,000 FEET WITH NO
SIGNIFICANT WEATHER AND/OR NO OBSTRUCTIONS TO VISIBILITY.

NYZ032-033-038>043-046>054-057>066-NYZ062>081-311700-
EAST


CITY           SKY/WX    TMP DP  RH WIND       PRES   REMARKS
ALBANY         SUNNY      6 -12  43 W17       30.20S WCI -13
GLENS FALLS    SUNNY      8 -13  37 N12       30.17F WCI  -7
POUGHKEEPSIE   SUNNY     16  -9  32 NW10      30.14S WCI   4
NEWBURGH       SUNNY     16  -2  45 NW12G23   30.13R WCI   3
MONTGOMERY     SUNNY     16  -6  37 W18G28    30.13R WCI   0
WHITE PLAINS   SUNNY     16  -3  43 NW22G32   30.07R WCI  -2
ISLIP          SUNNY     18  -2  41 NW25G35   30.03S WCI   0
NEW YORK CITY  SUNNY     19   2  47 NW24G35   30.14S WCI   2
CENTRAL PARK   SUNNY     18  -5  36 NW14G29   30.15R WCI   4
$$

NYZ005>009-017-018-044>046-055-056-311700-
CENTRAL


CITY           SKY/WX    TMP DP  RH WIND       PRES   REMARKS
FULTON         MIX PCPN   9   0  67 NW10      30.32S WCI  -5
SYRACUSE       PTSUNNY    5  -3  69 W3        30.32S
ROME           SUNNY      1 -12  54 NW7       30.32F WCI -12
ELMIRA         MOSUNNY   16   4  59 W9        30.27S WCI   4
BINGHAMTON     MOSUNNY    9   0  67 NW14      30.16S WCI  -7
MONTICELLO     SUNNY      9  -2  61 NW20G32   30.09R WCI -11
$$

NYZ026>034-041>043-311700-
NORTH


CITY           SKY/WX    TMP DP  RH WIND       PRES   REMARKS
WATERTOWN        N/A      1 -12  54 SW5       30.35S WCI  -9
FORT DRUM      NOT AVBL
MASSENA        SUNNY     -3 -16  53 SW12      30.32F WCI -21
SARANAC LAKE   SUNNY     -4 -17  53 W10       30.07S WCI -21
PLATTSBURGH    MIX PCPN   6 -15  37 NW10G16   30.20F WCI  -9
$$

NYZ001>004-010>016-019>021-311700-
WEST


CITY           SKY/WX    TMP DP  RH WIND       PRES   REMARKS
NIAGARA FALLS  FLURRIES  17  10  74 SW10      30.30S WCI   5
BUFFALO        PTSUNNY   16   9  74 SW9       30.30S WCI   4
DUNKIRK        CLOUDY    18   9  68 SW9       30.32S WCI   7
JAMESTOWN      CLOUDY    12   5  73 S9        30.22S WCI   0
WELLSVILLE     PTSUNNY   12   3  67 NW18      30.19R WCI  -6
ROCHESTER      FLURRIES  12   7  80 SW5       30.31F WCI   4
PENN YAN       CLOUDY    13   4  67 NW8       30.28S WCI   2
$$

             KEY
       WCI = WIND CHILL INDEX
       VSB = VISIBILITY
       HX  = HEAT INDEX
$$



USA.gov is the U.S. government's official web portal to all federal, state and local government web resources and services.